Location: Enborne
(51.3833°N, 1.3667°W)
Time: 02:19:06
(UTC+00:00)

Cosmos 2233 Rocket - Pass Details

Date: 18 September 2020
Orbit: 953 x 991 km, 82.9° (Epoch: 30 October)

Event Time Altitude Azimuth Distance (km) Brightness Sun altitude
Rises 18:42:17 0° 183° (S) 3,669 6.9 -5.5°
Reaches altitude 10° 18:44:47 10° 182° (S) 2,720 6.3 -5.9°
Maximum altitude 18:51:01 79° 97° (E) 994 4.0 -6.9°
Drops below altitude 10° 18:57:13 10° 12° (NNE) 2,712 6.4 -7.8°
Sets 18:59:43 0° 11° (NNE) 3,658 7.0 -8.2°
